This is the latest recevied weather packets stored in our database for station/object HARMAJA. If no packets are shown the sender has not sent any weather packets the latest 10 day(s).
| Time | Temp. | Humidity | Pressure | Rain* | Wind** | Luminosity | Snow |
|---|---|---|---|---|---|---|---|
| 1777384003 | 5.56° C | 50% | 1019.1 hPa | - | - | - | - |
| 1777382803 | 5.56° C | 49% | 1018.9 hPa | - | - | - | - |
| 1777380403 | 5.56° C | 49% | 1018.8 hPa | - | - | - | - |
| 1777379202 | 5.56° C | 51% | 1018.7 hPa | - | - | - | - |
| 1777378002 | 5° C | 54% | 1018.6 hPa | - | - | - | - |
| 1777375603 | 5.56° C | 49% | 1018.4 hPa | - | - | - | - |
| 1777374402 | 5° C | 49% | 1018.4 hPa | - | - | - | - |
| 1777372002 | 5° C | 50% | 1018.2 hPa | - | - | - | - |
| 1777370802 | 4.44° C | 50% | 1018.2 hPa | - | - | - | - |
| 1777369602 | 4.44° C | 49% | 1018 hPa | - | - | - | - |
| 1777368402 | 5° C | 50% | 1017.9 hPa | - | - | - | - |
| 1777366002 | 4.44° C | 53% | 1017.6 hPa | - | - | - | - |
| 1777364802 | 4.44° C | 52% | 1017.6 hPa | - | - | - | - |
| 1777363602 | 3.89° C | 53% | 1017.5 hPa | - | - | - | - |
| 1777362402 | 4.44° C | 56% | 1017.3 hPa | - | - | - | - |
| 1777361202 | 3.89° C | 55% | 1017.2 hPa | - | - | - | - |
| 1777360001 | 3.89° C | 58% | 1017.1 hPa | - | - | - | - |
| 1777358802 | 3.89° C | 59% | 1017.1 hPa | - | - | - | - |
| 1777357602 | 3.33° C | 62% | 1017.3 hPa | - | - | - | - |
| 1777356401 | 3.33° C | 62% | 1017.2 hPa | - | - | - | - |
| 1777354001 | 3.33° C | 61% | 1017.1 hPa | - | - | - | - |
| 1777352801 | 2.78° C | 61% | 1017.1 hPa | - | - | - | - |
| 1777351601 | 2.78° C | 65% | 1017.1 hPa | - | - | - | - |
| 1777350401 | 2.22° C | 67% | 1017.1 hPa | - | - | - | - |
| 1777349201 | 2.22° C | 66% | 1017.1 hPa | - | - | - | - |
* Rain since midnight (hover to see other rain measurements)
** Current wind speed in m/s (hover to see current wind gust speed)